Location: Colonia Mina de C?rbuni
(46.1667°N, 22.7167°E)
Time: 21:26:05
(UTC+00:00)

BlueWalker 3 - Pass Details

Date: 04 March 2024
Orbit: 485 x 495 km, 53.2° (Epoch: 22 April)

Event Time Altitude Azimuth Distance (km) Brightness Sun altitude
Rises 16:38:12 0° 301° (WNW) 2,567 6.5 -3.9°
Reaches altitude 10° 16:40:25 10° 305° (NW) 1,681 5.5 -4.3°
Maximum altitude 16:44:10 61° 26° (NNE) 559 2.0 -5.0°
Drops below altitude 10° 16:47:53 10° 108° (ESE) 1,667 4.0 -5.6°
Enters shadow 16:48:49 - 110° (ESE) 2,040 4.4 -5.8°
